Location: Aressy
(43.2833°N, 0.3167°W)
Time: 08:12:18
(UTC+00:00)

CSL-04 Debris - Visible Passes

Search period start: 11 May 2021 00:00
Search period end: 21 May 2021 00:00
Orbit: 826 x 849 km, 98.9° (Epoch: 10 May)

Date Brightness Start Highest point End Pass type
(mag) Time Alt. Az. Time Alt. Az. Time Alt. Az.
11 May 6.5 20:26:48 10° SW 20:30:50 21° W 20:34:52 10° NW visible
12 May 6.1 20:10:19 10° SSW 20:14:57 29° W 20:19:36 10° NW visible
13 May 5.6 19:54:05 10° SSW 19:59:06 39° W 20:04:09 10° NNW visible
16 May 6.8 20:50:19 10° WSW 20:52:51 13° W 20:55:23 10° WNW visible
17 May 6.6 20:33:11 10° SW 20:36:54 19° W 20:40:38 10° NW visible
18 May 6.2 20:16:35 10° SSW 20:21:01 26° W 20:25:28 10° NW visible
19 May 5.8 20:00:15 10° SSW 20:05:09 35° W 20:10:04 10° NNW visible
